TJS-16

Last updated on Sun Jun 21 2026 00:03:09 GMT+0000 (Coordinated Universal Time)

1 63397U 25064A 26171.46202840 -.00000110 00000+0 00000+0 0 9999 2 63397 1.1077 81.4457 0003312 292.6528 221.5121 1.00271697 4425
UTC large
Height (km)
Speed (km/s)
/
Latitude / Longitude
Inclination (degrees)
Orbital Period (minutes)
Azimuth
Elevation
Range (km)
Doppler Factor

Next 0 passes for location: London (51.5072 / 0.1276)

No passes found over London.
TJS-16